Etusivu
METAR-TAF:

METAR-TAF

Lentoasemat :

Campo, Kalifornia, Yhdysvallat

Leveyspiiri: 32-37-34N, Pituuspiiri: 116-28-06W, korkeus merenpinnasta: 807 m

Tämänhetkinen sää

Tämä raportti tehtiin 37 minuuttia sitten, kello 06.52 UTC
Tuuli 6 kn koillisesta
Lämpötila 16°C
Kosteus 63%
Ilmanpaine 1017 hPa

METAR: KCZZ 030652Z AUTO 05006KT 16/09 A3002 RMK AO1 SLP131 T01610089

Aika: 00:29 (07:29 UTC)


TAF: puuttuu

Säähavainnot ja -ennusteet yli 4000 lentoasemalta (METAR- ja TAF-raportit).

Käytössä olevat sääasemat on merkitty karttaan keltaisilla ja punaisilla pisteillä.

Aseta hiiri pisteen päälle nähdäksesi sääaseman nimen.

Klikkaa sitten nähdäksesi säähavainnot ja -ennusteet.

Kartan vaihtaminen: klikkaa mustalla rastilla varustettuja vihreitä pisteitä, niin voit zoomata sisään; viivalla varustettua vihreää pistettä, niin voit zoomata ulos tai vihreitä nuolia, niin pääset viereisille kartoille.


METAR-TAF: